Regional Weather Roundup
Issued by NWS

Home | Current Version | Previous Version | Graphics & Text | Print | Product List | Glossary On
Versions: 1 2 3 4 5 6 7 8 9 10 11 12 13 14 15 16 17 18 19 20 21 22 23 24 25 26 27 28 29 30 31 32 33 34 35 36 37 38 39 40 41 42 43 44 45 46 47 48 49 50
000
ASUS43 KIND 212300
RWRIN

WEATHER ROUNDUP FOR INDIANA
NATIONAL WEATHER SERVICE INDIANAPOLIS IN
700 PM EDT SAT OCT 21 2017

NOTE: "FAIR" INDICATES FEW OR NO CLOUDS BELOW 12,000 FEET WITH NO
SIGNIFICANT WEATHER AND/OR OBSTRUCTIONS TO VISIBILITY.

* - STATION DOES NOT REPORT WEATHER SUCH AS PRECIPITATION OR FOG.

+ - STATION NOT QUALITY CONTROLLED BY THE NATIONAL WEATHER SERVICE.
    USE DATA WITH CAUTION...ESPECIALLY DEWPOINT AND RELATIVE
    HUMIDITY OBSERVATIONS.

INZ001>003-010>013-019-020-220000-
NORTHWEST INDIANA

CITY           SKY/WX    TMP DP  RH WIND       PRES   REMARKS
GARY /AIRPORT/ PTCLDY    75  55  50 S12G23    30.02S
KNOX *+        CLOUDY    70  54  56 S8        30.07S
MICHIGAN CITY+ CLOUDY    70  54  56 SE6       30.05S
MONTICELLO +   CLOUDY    72  55  56 S6        30.08R
RENSSELAER +   PTCLDY    72  48  43 S10       30.07R

$$

LMZ046-743>745-220000-
SOUTHERN LAKE MICHIGAN

STATION/POSITION TIME  TEMP    WIND        PRES    WAVE
                       AIR SEA DIR/SP/G            HT
                 (UTC) (F)     (DEG/KT/KT) (MB)    (FT)
BURNS HARBOR     2240   73     170/ 10/ 19 1016.9F
MICHIGAN CITY    2230   73     150/ 11/ 15   N/A
5NW MICH CITY    2250   69 58  170/ 14/ 19   N/A     1

$$

INZ004-005-014>016-021>024-220000-
NORTH CENTRAL INDIANA

CITY           SKY/WX    TMP DP  RH WIND       PRES   REMARKS
GOSHEN         MOCLDY    69  52  54 S6        30.11S
PERU/GRISSOM   CLOUDY    69  54  58 S8        30.11R
SOUTH BEND     CLOUDY    70  54  56 S10       30.08S
WARSAW +       PTCLDY    70  54  56 CALM      30.12R

$$

INZ006>009-017-018-025>027-220000-
NORTHEAST INDIANA

CITY           SKY/WX    TMP DP  RH WIND       PRES   REMARKS
AUBURN +       PTCLDY    68  39  34 CALM      30.15R
FORT WAYNE     MOCLDY    66  42  41 S8        30.14S
KENDALLVILLE + CLEAR     67  44  42 S8        30.14S

$$

INZ028-029-035-036-043>045-051>053-220000-
WEST CENTRAL INDIANA

CITY           SKY/WX    TMP DP  RH WIND       PRES   REMARKS
GREENCASTLE +  CLOUDY    68  54  60 SE8       30.13S
LAFAYETTE      CLOUDY    71  58  63 S8        30.08S
TERRE HAUTE    CLEAR     71  54  54 S12       30.11R

$$

INZ030>032-037>040-046>048-054>057-064-065-220000-
CENTRAL INDIANA

CITY           SKY/WX    TMP DP  RH WIND       PRES   REMARKS
COLUMBUS       PTCLDY    68  46  45 S7        30.16S
FRANKFORT +    MOCLDY    72  55  55 S3        30.13S
GREENWOOD *+   CLOUDY    73  51  45 S9        30.16R
INDIANAPOLIS   MOCLDY    70  52  52 S8        30.14R
-EAGLE CREEK   CLOUDY    72  51  47 S7        30.13R
KOKOMO +       CLEAR     70  53  54 S12       30.13S
MT COMFORT *+  CLEAR     68  55  64 S8        30.16R
SHELBYVILLE    CLEAR     69  50  50 S8        30.15S

$$

INZ033-034-041-042-049-050-058-059-220000-
EAST CENTRAL INDIANA

CITY           SKY/WX    TMP DP  RH WIND       PRES   REMARKS
MUNCIE         CLEAR     71  49  45 S6        30.15S
RICHMOND +     CLEAR     61  46  59 SE8       30.21S

$$

INZ060-061-067>069-081>083-085>088-220000-
SOUTHWEST INDIANA

CITY           SKY/WX    TMP DP  RH WIND       PRES   REMARKS
EVANSVILLE     CLEAR     73  54  51 SE3       30.12S
HUNTINGBURG +  CLEAR     68  54  60 SE6       30.15S

$$

INZ062-063-066-070>080-084-089>092-220000-
SOUTH CENTRAL AND SOUTHEAST INDIANA

CITY           SKY/WX    TMP DP  RH WIND       PRES   REMARKS
BLOOMINGTON    CLOUDY    70  49  47 S6        30.15R
MADISON *+     PTCLDY    66  46  48 CALM      30.20S
SEYMOUR +      MOCLDY    70  50  49 SE6       30.16F

$$





USA.gov is the U.S. government's official web portal to all federal, state and local government web resources and services.